Location: Unspecified
(0.0000°N, 0.0000°E)
Time: 16:28:39
(UTC+00:00)

HO-68 - Pass Details

Date: 06 June 2023
Orbit: 1193 x 1204 km, 100.3° (Epoch: 28 September)

Event Time Altitude Azimuth Distance (km) Brightness Sun altitude
Rises 04:08:24 0° 346° (NNW) 4,089 ? -25.3°
Reaches altitude 10° 04:11:42 10° 332° (NNW) 3,126 ? -24.5°
Enters shadow 04:15:28 20° 300° (WNW) 2,435 ? -23.7°
